Regional Weather Roundup
Issued by NWS Upton, NY

Current Version | Previous Version | Graphics & Text | Print | Product List | Glossary On
Versions: 1 2 3 4 5 6 7 8 9 10 11 12 13 14 15 16 17 18 19 20 21 22 23 24 25 26 27 28 29 30 31 32 33 34 35 36 37 38 39 40 41 42 43 44 45 46 47 48 49 50
000
ASUS41 KOKX 071015
RWROKX

Regional Weather Roundup
National Weather Service New York NY
600 AM EDT SUN JUN 07 2020

Note: "FAIR" indicates few or no clouds below 12,000 feet with no
significant weather and/or obstructions to visibility.

NYZ071-072-176-178-NJZ106-104-071100-
New York City Metro Area

CITY           SKY/WX    TMP DP  RH WIND       PRES   REMARKS
Central Park   CLEAR     64  49  57 MISG      29.89R
Bronx Lehman C   N/A     63  50  63 N12         N/A
LaGuardia Arpt CLEAR     65  49  56 N12       29.86R
Queens College   N/A     64  50  59 N12         N/A
Kennedy Intl   PTCLDY    64  50  60 N13       29.86R
Breezy Point     N/A     64 N/A N/A N12G17      N/A
Brooklyn Coll    N/A     66  48  52 N9          N/A
Staten Island    N/A     64  50  59 NW8         N/A
Newark/Liberty CLEAR     64  49  57 N12       29.86R
Teterboro      CLEAR     62  49  62 N9        29.86R
$$

NYZ177-179-078>081-071100-
Long Island New York

CITY           SKY/WX    TMP DP  RH WIND       PRES   REMARKS
Jones Beach      N/A     63 N/A N/A N13         N/A
Wantagh          N/A     61  50  67 NW8         N/A
Hempstead      NOT AVBL
Matinecock Pt    N/A     63 N/A N/A N20G25      N/A
Farmingdale    CLEAR     63  49  60 N12G18    29.84R
MacArthur/ISP  PTCLDY    62  51  67 N17G23    29.82
Stony Brook      N/A     61  52  72 NW8         N/A
Shirley        CLEAR     62  49  62 NW9       29.82R
Mt Sinai Harb    N/A     61 N/A N/A E7G14       N/A
Westhampton    CLEAR     60  49  66 NW9       29.82R
East Hampton   FAIR      60  48  64 NW6       29.79S
Southold         N/A     61  52  72 NW8         N/A
Montauk          N/A     59  52  77 NW6       29.80R
$$

NYZ052-065-067-071100-
Hudson Valley

CITY           SKY/WX    TMP DP  RH WIND       PRES   REMARKS
White Plains   CLEAR     58  48  69 N12       29.86R
Larchmont Harb NOT AVBL
Croton On Huds   N/A     61 N/A N/A NW2         N/A
Somers           N/A     57  50  77 N6          N/A
Brewster         N/A     55  50  82 N8          N/A
Newburgh       CLEAR     55  50  82 CALM      29.89R
Montgomery     CLEAR     51  49  92 CALM      29.89R
Otisville        N/A     54  50  87 W2          N/A
Warwick          N/A     55  52  88 W3          N/A
Suffern          N/A     57  50  77 N2          N/A
Poughkeepsie   CLEAR     60  50  69 N5        29.87R
Albany         MOCLDY    57  49  74 NW5       29.91R
$$

NJZ001-105-106-008-010-013-015-019>022-104-071100-
New Jersey

CITY           SKY/WX    TMP DP  RH WIND       PRES   REMARKS
Newark/Liberty CLEAR     64  49  57 N12       29.86R
Teterboro      CLEAR     62  49  62 N9        29.86R
Caldwell       CLEAR     62  49  62 CALM      29.88R
Somerville     CLEAR     52  51  97 CALM      29.87R
Linden         FAIR      64  48  57 N9G16     29.87R
Perth Amboy      N/A     64 N/A N/A NW12        N/A
Sussex         CLEAR     59  50  72 VRB5      29.91R
Andover          N/A     58  51  78 NW6       29.90R
Trenton        CLEAR     61  50  67 NW5       29.88R
Millville      CLEAR     64  48  56 NW9       29.88R
Atlantic City  CLEAR     62  50  64 NW6       29.88R
Wrightstown    CLEAR     63  50  63 NW8       29.88
Toms River     CLEAR     62  50  64 NW7       29.88R
Belmar         CLEAR     62  52  69 NW7       29.88R
$$

PAZ047>061-062-071-071100-
Eastern Pennsylvania

CITY           SKY/WX    TMP DP  RH WIND       PRES   REMARKS
Philadelphia   PTCLDY    65  49  56 NW7       29.90R
Allentown      CLEAR     58  50  75 NW7       29.92R
Scranton       CLEAR     57  50  77 N10       29.95R
$$

CTZ002-004>006-009-010-012-RIZ004-006-007-MAZ004-011-015-071100-
Southern New England

 In CT

CITY           SKY/WX    TMP DP  RH WIND       PRES   REMARKS
Bradley Intl   PTCLDY    58  47  66 N9        29.83R
Hartford       CLEAR     60  47  61 N8        29.82R
Danbury        CLEAR     58  46  64 N7        29.88R
Wtrbury/Oxford CLEAR     56  48  74 NW12      29.86R
Norwalk Harbor   N/A     61 N/A N/A NW16        N/A
Bridgeport     CLEAR     62  49  62 NW13G22   29.82R
Meriden        CLEAR     59  48  67 N6        29.83R
New Haven      CLEAR     62  50  64 NW7       29.82R
Chester        NOT AVBL
Groton         CLEAR     58  49  72 NW9       29.79R
Willimantic    CLEAR     53  51  93 CALM      29.81R

 In RI

CITY           SKY/WX    TMP DP  RH WIND       PRES   REMARKS
Providence     PTCLDY    59  51  75 NW8       29.77R
Block Island   CLEAR     57  50  77 NW9       29.78S
Westerly       CLEAR     60  48  64 N6        29.78S

In MA

CITY           SKY/WX    TMP DP  RH WIND       PRES   REMARKS
Boston         MOCLDY    60  52  74 NW15G23   29.78R
Worcester      CLEAR     54  48  80 NW16G24   29.79R
Westfield      CLEAR     56  47  71 N6        29.84R
Provincetown   CLEAR     58  56  93 NW12      29.75R
Nantucket      CLOUDY    61  55  81 NW13      29.73R
$$

ANZ330-335-338-340-345-350-353-355-071100-
Coastal Marine Observations


STATION/POSITION TIME  SKY/WX   TEMP    WIND        PRES    VSBY  WAVE
                                AIR SEA DIR/SP/G                  HT/PER
                 (UTC)          (F)     (DEG/KT/KT) (MB)    (MI)  (FT/S)
NY Harb Entrance 0950            64 63  360/  8/ 14 1010.7          2/ 6
20 S Fire Island 0950               60  330/ 12/ 16 1010.0          3/ 6
Great South Bay  NOT AVBL
23 SSW Montauk P 0950            61 59  330/ 14/ 17 1008.7          2/ 7
15 E Barnegat Li 0900               63                N/A           3/ 6
Hudson Canyon    0950               60              1010.4          2/ 7
Kings Point      0930            63      40/ 15/ 16 1011.4
Execution Rocks  0945            62 32  340/ 14/ 19   N/A
Western LI Sound 0945            62     350/ 12/ 19   N/A           1/ 3
Central LI Sound NOT AVBL
Robbins Reef     0930            66     340/ 13/ 17 1010.8
$$


>>>>>>>>>>>>>>>>>>>>>>>>>>>> KEY <<<<<<<<<<<<<<<<<<<<<<<<<<<
>                                                          <
>     SKY/WX - Sky Condition/Present Weather               <
>     TMP    - Temperature in Fahrenheit                   <
>     DP     - Dew Point in Fahrenheit                     <
>     RH     - Relative Humidity in Percent                <
>     WIND   - Direction (from) and Speed in MPH           <
>     PRES   - Mean Sea Level Pressure (inches of Hg)      <
>     WCI    - Wind Chill Index                            <
>     VSB    - Visibility in Miles                         <
>     HX     - Heat Index                                  <
>     TC     - Temperature in Celsius                      <
>     VRB    - Variable Wind Direction                     <
>                                                          <
>>>>>>>>>>>>>>>>>>>>>>>>>>>> KEY <<<<<<<<<<<<<<<<<<<<<<<<<<<



USA.gov is the U.S. government's official web portal to all federal, state and local government web resources and services.